Terminal Aerodrome Forecast
Issued by NWS

Home | Current Version | Previous Version | Text Only | Print | Product List | Glossary On
Versions: 1 2 3 4 5 6 7 8 9 10 11 12 13 14 15 16 17 18
000
FTUS42 TJSJ 131100
TAFJSJ
TAF
TJSJ 131125Z 1312/1412 09004KT P6SM FEW024 SCT070
     FM131300 06009KT P6SM FEW035
     FM131500 05015G20KT P6SM FEW030
     FM132300 09008KT P6SM FEW030 SCT050=

USA.gov is the U.S. government's official web portal to all federal, state and local government web resources and services.